Regional Weather Roundup
Issued by NWS

Home | Current Version | Previous Version | Graphics & Text | Print | Product List | Glossary On
Versions: 1 2 3 4 5 6 7 8 9 10 11 12 13 14 15 16 17 18 19 20 21 22 23 24 25 26 27 28 29 30 31 32 33 34 35 36 37 38 39 40 41 42 43 44 45 46 47 48 49 50
000
ASUS43 KLMK 240802
RWRKY
KENTUCKY REGIONAL WEATHER ROUNDUP
NATIONAL WEATHER SERVICE LOUISVILLE KY
400 AM EDT THU JUL 24 2014

NOTE "FAIR" INDICATES FEW OR NO CLOUDS BELOW 12,000 FEET
WITH NO SIGNIFICANT WEATHER AND/OR OBSTRUCTIONS TO VISIBILITY.

KYZ001>023-026-027-061>063-070>075-240900-
WESTERN AND SOUTH CENTRAL KENTUCKY

CITY           SKY/WX    TMP DP  RH WIND       PRES   REMARKS
PADUCAH        CLEAR     66  58  75 N8        30.02F
HENDERSON      MOCLDY    64  54  68 N8        30.00F
OWENSBORO      CLOUDY    68  59  73 VRB5      29.99F
HOPKINSVILLE   MOCLDY    72  69  89 NW6       29.97F
BOWLING GREEN  CLOUDY    74  70  87 NW8       29.96F
GLASGOW        CLOUDY    69  69 100 CALM      29.95F FOG
$$

KYZ024-025-028>034-038-045-046-053-240900-
NORTH CENTRAL KENTUCKY

CITY           SKY/WX    TMP DP  RH WIND       PRES   REMARKS
LOUISVILLE/SDF MOCLDY    71  66  84 N10       29.96F
LOUISVILLE/LOU CLOUDY    70  65  84 N8        29.96F
FORT KNOX      MOCLDY    69  66  90 N6        29.96F
$$

KYZ035>037-039>044-047>052-055>060-089>105-240900-
NORTHEAST KENTUCKY

CITY           SKY/WX    TMP DP  RH WIND       PRES   REMARKS
LEXINGTON      CLOUDY    71  68  90 N3        29.95F
COVINGTON      MOCLDY    66  59  78 NE13      29.99F
FRANKFORT      CLOUDY    70  67  90 N8        29.95S
$$

KYZ054-064>069-076>088-106>120-240900-
SOUTHEAST KENTUCKY

CITY           SKY/WX    TMP DP  RH WIND       PRES   REMARKS
JACKSON        FOG       68  67  96 CALM      29.96F VSB 1/4
LONDON         PTCLDY    70  67  90 CALM      29.97F FOG
SOMERSET       CLOUDY    68  68 100 CALM      29.97S FOG
MIDDLESBORO    CLOUDY    69  69 100 CALM      29.97S
MONTICELLO     FOG       70  70 100 CALM      29.97F VSB 1
$$



USA.gov is the U.S. government's official web portal to all federal, state and local government web resources and services.